User: anonymous   Login
Location: Caltech
(34.1382°N, 118.1253°W)
Time: 04:39:00
(UTC-08:00)
Language:

Cosmos 2251 Rocket - Orbit

View from above orbital plane
View from above orbital plane
View from above satellite
View from above satellite

Ground track
Ground track

The orbit data is extracted from the following two-line orbital elements,

1 22676U 93036B   16344.01081508 -.00000096  00000-0 -25000-4 0  9993
2 22676  74.0396 169.6769 0019840 244.5411 115.3688 14.33903996228080
Epoch (UTC): 09 December 2016 00:15:34
Eccentricity: 0.0019840
inclination: 74.0396°
perigee height: 764 km
apogee height: 793 km
right ascension of ascending node: 169.6769°
argument of perigee: 244.5411°
revolutions per day: 14.33903996
mean anomaly at epoch: 115.3688°
orbit number at epoch: 22808

The dashed part of the orbit path shows where the satellite is in the earth's shadow,  

DLR